Location: Newark
(40.2531°N, 0.7525°W)
Time: 03:35:29
(UTC+00:00)

CUBEBUG 2 - Visible Passes

Search period start: 08 December 2019 00:00
Search period end: 18 December 2019 00:00
Orbit: 587 x 697 km, 97.6° (Epoch: 07 December)

Date Brightness Start Highest point End Pass type
(mag) Time Alt. Az. Time Alt. Az. Time Alt. Az.
08 Dec ? 04:24:46 10° NE 04:28:22 22° E 04:31:52 10° SE visible
08 Dec ? 06:00:52 10° N 06:05:00 33° WNW 06:08:59 10° SW visible
09 Dec ? 04:48:19 10° NNE 04:52:39 40° E 04:56:49 10° SSE visible
09 Dec ? 06:25:39 10° NNW 06:28:53 19° WNW 06:32:04 10° WSW visible
09 Dec ? 17:21:58 10° SSW 17:25:51 25° W 17:29:47 10° NW visible
10 Dec ? 05:12:14 10° NNE 05:16:50 76° ESE 05:21:14 10° S visible
10 Dec ? 17:47:39 10° WSW 17:50:12 14° W 17:52:46 10° WNW visible
11 Dec ? 04:02:02 10° ENE 04:03:54 12° E 04:05:45 10° ESE visible
11 Dec ? 05:36:25 10° N 05:40:54 59° WNW 05:45:13 10° SSW visible
12 Dec ? 04:24:43 10° NE 04:28:16 22° E 04:31:43 10° SE visible
12 Dec ? 06:00:51 10° N 06:04:53 32° WNW 06:08:48 10° SW visible
13 Dec ? 04:48:16 10° NNE 04:52:32 40° E 04:56:39 10° SSE visible
13 Dec ? 06:25:39 10° NNW 06:28:47 19° WNW 06:31:50 10° WSW visible
13 Dec ? 17:21:54 10° SSW 17:25:47 25° W 17:29:43 10° NW visible
14 Dec ? 05:12:12 10° NNE 05:16:43 76° ESE 05:21:03 10° S visible
14 Dec ? 17:47:37 10° WSW 17:50:08 14° W 17:52:39 10° WNW visible
15 Dec ? 04:02:00 10° ENE 04:03:47 12° E 04:05:34 10° ESE visible
15 Dec ? 05:36:22 10° N 05:40:47 57° WNW 05:45:02 10° SSW visible
16 Dec ? 04:24:40 10° NE 04:28:10 22° E 04:31:32 10° SE visible
16 Dec ? 06:00:49 10° N 06:04:46 31° WNW 06:08:35 10° SW visible
17 Dec ? 04:48:13 10° NNE 04:52:26 40° E 04:56:28 10° SSE visible
17 Dec ? 06:25:39 10° NNW 06:28:39 18° WNW 06:31:36 10° WSW visible
17 Dec ? 17:21:51 10° SSW 17:25:44 25° W 17:29:37 10° NW visible
